Location: Los Gatos B&B
(42.6926°N, 77.0646°W)
Time: 02:45:54
(UTC-04:00)

SL-16 R/B - Visible Passes

Search period start: 26 August 2016 00:00
Search period end: 05 September 2016 00:00
Orbit: 840 x 850 km, 71.0° (Epoch: 24 August)

Date Brightness Start Highest point End Pass type
(mag) Time Alt. Az. Time Alt. Az. Time Alt. Az.
26 Aug 3.0 02:32:46 47° NNE 02:32:46 47° NNE 02:36:47 10° NNE visible
26 Aug 4.1 04:14:39 15° WNW 04:16:01 16° NW 04:19:31 10° N visible
27 Aug 3.3 02:19:06 41° NNE 02:19:06 41° NNE 02:22:44 10° NNE visible
27 Aug 4.1 04:00:59 16° WNW 04:01:56 17° NW 04:05:32 10° N visible
28 Aug 3.5 02:05:24 36° NNE 02:05:24 36° NNE 02:08:41 10° NNE visible
28 Aug 4.1 03:47:17 17° NW 03:47:51 17° NW 03:51:33 10° N visible
29 Aug 3.7 01:51:42 32° NNE 01:51:42 32° NNE 01:54:38 10° NNE visible
29 Aug 4.1 03:33:34 18° NW 03:33:46 18° NW 03:37:34 10° N visible
30 Aug 3.9 01:37:57 28° NNE 01:37:57 28° NNE 01:40:35 10° NNE visible
30 Aug 4.1 03:19:50 18° NW 03:19:50 18° NW 03:23:34 10° N visible
31 Aug 4.1 01:24:13 25° NNE 01:24:13 25° NNE 01:26:32 10° NNE visible
31 Aug 4.2 03:06:05 19° NW 03:06:05 19° NW 03:09:35 10° N visible
01 Sep 4.2 01:10:26 23° NNE 01:10:26 23° NNE 01:12:29 10° NNE visible
01 Sep 4.2 02:52:18 19° NW 02:52:18 19° NW 02:55:34 10° N visible
02 Sep 4.3 00:56:38 21° NNE 00:56:38 21° NNE 00:58:26 10° NNE visible
02 Sep 4.2 02:38:30 19° NW 02:38:30 19° NW 02:41:35 10° N visible
03 Sep 4.4 00:42:50 19° NNE 00:42:50 19° NNE 00:44:23 10° NNE visible
03 Sep 4.3 02:24:41 19° NNW 02:24:41 19° NNW 02:27:35 10° N visible
04 Sep 4.5 00:29:00 18° NNE 00:29:00 18° NNE 00:30:20 10° NNE visible
04 Sep 4.4 02:10:52 19° NNW 02:10:52 19° NNW 02:13:34 10° N visible
